Regional Weather Roundup
Issued by NWS

Home | Current Version | Previous Version | Text Only | Print | Product List | Glossary On
Versions: 1 2 3 4 5 6 7 8 9 10 11 12 13 14 15 16 17 18 19 20 21 22 23 24 25 26 27 28 29 30 31 32 33 34 35 36 37 38 39 40 41 42 43 44 45 46 47 48 49 50
000
ASUS43 KDTX 291410
RWRMI
MICHIGAN HOURLY REGIONAL WEATHER ROUNDUP
NATIONAL WEATHER SERVICE DETROIT/PONTIAC MI
1000 AM EDT SUN MAR 29 2015

NOTE: "FAIR" INDICATES FEW OR NO CLOUDS BELOW 12,000 FEET WITH NO
SIGNIFICANT WEATHER AND/OR OBSTRUCTION TO VISIBILITY.

MIZ047>049-052>055-059>063-066>070-074>076-081>083-291500-
SOUTHEAST LOWER MICHIGAN

CITY           SKY/WX    TMP DP  RH WIND       PRES   REMARKS
ADRIAN         SUNNY     31  18  58 SW16      30.25F WCI  20
ALMA           SUNNY     33  17  52 S12G18    30.16F WCI  24
ANN ARBOR      SUNNY     31  19  61 SW10      30.24F WCI  22
BAD AXE        MOSUNNY   32  13  46 SW17G23   30.17F WCI  21
CARO           PTSUNNY   32  14  47 S13       30.17S WCI  23
DETROIT CITY   SUNNY     34  16  47 SW12      30.26F WCI  25
DETROIT        MOSUNNY   33  18  53 S16G24    30.27S WCI  23
FLINT          SUNNY     34  13  41 S16       30.20F WCI  24
GROSSE ILE     SUNNY     34  19  55 SW13      30.26S WCI  25
HILLSDALE      SUNNY     31  17  55 SW12      30.20S WCI  22
HOWELL         SUNNY     32  14  47 S10G21    30.20S WCI  24

CITY           SKY/WX    TMP DP  RH WIND       PRES   REMARKS
JACKSON        SUNNY     32  15  49 SW17G25   30.20F WCI  21
LAMBERTVILLE   SUNNY     34  18  51 S12G18    30.27F WCI  25
LANSING        SUNNY     33  14  45 S16       30.18F WCI  23
LAPEER         FAIR      32  13  45 SW12G23   30.20S WCI  23
MASON          SUNNY     32  16  51 S10G17    30.19S WCI  23
MONROE         SUNNY     32  18  55 SW12      30.26S WCI  23
MT. CLEMENS    MOSUNNY   33  18  53 SW12      30.22F WCI  24
PONTIAC        MOSUNNY   31  13  47 SW13G24   30.20F WCI  21
PORT HOPE        N/A     33  13  43 VRB7G21   30.14F WCI  27
PORT HURON     SUNNY     32  19  59 SW8       30.23F WCI  25
TRI CITIES     SUNNY     33  16  49 SW13      30.16F WCI  24
TROY           SUNNY     32  16  50 SW7G17    30.26S WCI  26
SAGINAW HB     MOSUNNY   34  18  51 S16G22    30.16F WCI  23
$$
MIZ043>046-050>051-056>058-064>065-071>073-077>080-291500-
SOUTHWEST LOWER MICHIGAN

CITY           SKY/WX    TMP DP  RH WIND       PRES   REMARKS
BATTLE CREEK   MOSUNNY   33  16  49 S15G26    30.18S WCI  23
BENTON HARBOR  PTSUNNY   33  17  51 S13G23    30.15F WCI  24
BIG RAPIDS     PTSUNNY   32  14  47 S16G23    30.07F WCI  21
COLDWATER      SUNNY     32  16  51 S10       30.20S WCI  24
FREMONT        FAIR      32  14  47 S13G20    30.10F WCI  22
HOLLAND        PTSUNNY   34  18  52 S17       30.14F WCI  23
GRAND RAPIDS   PTSUNNY   33  17  51 S13       30.15F WCI  24
IONIA          FAIR      32  17  52 SW16      30.15F WCI  22
KALAMAZOO      MOSUNNY   32  17  54 S16       30.19R WCI  21
LUDINGTON      PTSUNNY   36  23  61 S20G26    30.01F WCI  25
MARSHALL       FAIR      32  16  51 S15       30.19R WCI  22
MOUNT PLEASANT SUNNY     33  15  47 S9G17     30.12F WCI  25
MUSKEGON       PTSUNNY   33  20  58 S17G29    30.10F WCI  22
SOUTH HAVEN    PTSUNNY   34  16  48 S10G20    30.14F WCI  26
$$
MIZ016>042-291500-
NORTHERN LOWER MICHIGAN

CITY           SKY/WX    TMP DP  RH WIND       PRES   REMARKS
ALPENA         SUNNY     32  10  40 S15G21    30.05F WCI  22
BEAVER ISLAND  MOSUNNY   32  23  68 S16G31    29.90F WCI  21
BELLAIRE       SUNNY     34  12  40 S14G24    30.00F WCI  25
CADILLAC       MOSUNNY   32  13  45 S20       30.00F WCI  20
CHARLEVOIX     MOSUNNY   33  16  49 S12G18    29.99F WCI  24
FRANKFORT      MOSUNNY   36  21  54 S21G32    29.97F WCI  25
GAYLORD        SUNNY     29  10  45 SW16G25   29.97F WCI  17
GRAYLING       SUNNY     32   8  35 S8G18     30.01F WCI  25
HARBOR SPRINGS SUNNY     32  13  46 SW13G24   29.96F WCI  23
HOUGHTON LAKE  SUNNY     31   9  39 SW14G25   30.04F WCI  21
MANISTEE       PTSUNNY   34  19  55 S12G23    30.00F WCI  25
OSCODA         SUNNY     32  15  49 SW15      30.10F WCI  21
PELLSTON       SUNNY     33  12  41 S12G23    29.96F WCI  24
ROGERS CITY    SUNNY     32  12  43 SW15G22   30.02F WCI  22
TRAVERSE CITY  MOSUNNY   34  16  47 SW15G24   29.98F WCI  24
$$
MIZ007>008-015-291500-
EASTERN UPPER MICHIGAN

CITY           SKY/WX    TMP DP  RH WIND       PRES   REMARKS
KINROSS        MOSUNNY   32  18  55 S14G23    29.91F WCI  22
MACKINAC ISLAN SUNNY     32  14  48 S14G21    29.94F WCI  22
NEWBERRY       MOSUNNY   29  25  82 S18G26    29.83F WCI  17
S. S. MARIE    MOSUNNY   26  14  60 SE8       29.91F WCI  18
MUNISING         N/A     35  18  49 S15G36    29.74F WCI  25
$$
MIZ004>006-011>014-085-291500-
CENTRAL UPPER MICHIGAN

CITY           SKY/WX    TMP DP  RH WIND       PRES   REMARKS
MANISTIQUE     PTSUNNY   34  28  77 S21G31    29.85F WCI  22
ESCANABA       CLOUDY    32  21  64 S18G33    29.82F WCI  20
MENOMINEE      CLOUDY    34  19  55 SW21G32   29.84F WCI  22
SAWYER-GWINN   PTSUNNY   28  18  64 S25G32    29.71F WCI  14
$$
MIZ001>003-009>011-084-291500-
WESTERN UPPER MICHIGAN

CITY           SKY/WX    TMP DP  RH WIND       PRES   REMARKS
IRON MOUNTAIN  CLOUDY    32  17  54 S20G31    29.71F WCI  20
HOUGHTON       LGT RAIN  34  19  54 S15G28    29.56F WCI  24
COPPER HARBOR    N/A     34  22  61 SW16G28   29.57F WCI  24
IRONWOOD       CLOUDY    34  27  75 S18G33    29.50F WCI  23
$$

ABBREVIATIONS USED IN REMARKS
   TC - TEMPERATURE IN CELSIUS
  WCI - WIND CHILL INDEX
   HX - HEAT INDEX
  VSB - VISIBILITY



USA.gov is the U.S. government's official web portal to all federal, state and local government web resources and services.